N7WWK-1 Weather Reports


Display with metric or nautical units.
time (UTC)temp
F
wind
direction
speed
MPH
gust
MPH
rain 1hr
in
rain 24hr
in
rain mn
in
humidity
%
barometer
mb
20260506103004 63 0 0.0 0.0 0.00 0.00 0.00 94 1013.9
20260506102005 63 0 0.0 0.0 0.00 0.00 0.00 94 1013.9
20260506101004 63 0 0.0 0.0 0.00 0.00 0.00 94 1014.0
20260506100005 63 0 0.0 0.0 0.00 0.00 0.00 94 1014.0
20260506095217 63 0 0.0 0.0 0.00 0.00 0.00 93 1014.0
20260506094004 63 0 0.0 0.0 0.00 0.00 0.00 93 1013.8
20260506093004 63 0 0.0 0.0 0.00 0.00 0.00 93 1013.7
20260506092005 63 0 0.0 0.0 0.00 0.00 0.00 93 1013.8
20260506091005 63 0 0.0 0.0 0.00 0.00 0.00 93 1013.8
20260506090004 63 0 0.0 0.0 0.00 0.00 0.00 93 1013.7
20260506085004 63 0 0.0 0.0 0.00 0.00 0.00 92 1013.7
20260506084004 63 0 0.0 0.0 0.00 0.00 0.00 92 1013.8
20260506083005 63 0 0.0 0.0 0.00 0.00 0.00 92 1013.7
20260506082216 63 0 0.0 0.0 0.00 0.00 0.00 91 1013.7
20260506081005 63 0 0.0 0.0 0.00 0.00 0.00 92 1013.6
20260506073005 63 0 0.0 0.0 0.00 0.00 0.00 90 1013.7
20260506072005 63 0 0.0 0.0 0.00 0.00 0.00 89 1013.8
20260506071005 63 0 0.0 0.0 0.00 0.00 0.00 88 1013.9
20260506062004 64 0 0.0 0.0 0.00 0.00 0.00 86 1014.3
20260506061218 64 0 0.0 0.0 0.00 0.00 0.00 85 1014.2
20260506051004 66 149 0.0 2.0 0.00 0.00 0.00 80 1014.8
20260506050214 65 0 0.0 0.0 0.00 0.00 0.00 82 1014.9
20260506045005 65 160 0.0 2.0 0.00 0.00 0.00 83 1015.1
20260506044004 65 0 0.0 0.0 0.00 0.00 0.00 83 1015.2
20260506043004 65 0 0.0 0.0 0.00 0.00 0.00 82 1015.3
20260506042004 65 0 0.0 0.0 0.00 0.00 0.00 81 1015.3
20260506041004 65 0 0.0 0.0 0.00 0.00 0.00 80 1015.4
20260506040020 66 136 0.0 1.0 0.00 0.00 0.00 80 1015.3
20260506035005 66 0 0.0 0.0 0.00 0.00 0.00 79 1014.9
20260506034005 67 0 0.0 0.0 0.00 0.00 0.00 78 1015.0
20260506033218 67 0 0.0 0.0 0.00 0.00 0.00 77 1014.7
20260506032004 67 0 0.0 0.0 0.00 0.00 0.00 76 1014.8
20260506031005 67 0 0.0 0.0 0.00 0.00 0.00 75 1014.7
20260506030216 68 139 0.0 0.0 0.00 0.00 0.00 74 1014.7
20260506025004 68 0 0.0 0.0 0.00 0.00 0.00 73 1014.4
20260506024217 68 0 0.0 0.0 0.00 0.00 0.00 73 1014.6
20260506023004 69 113 0.0 1.0 0.00 0.00 0.00 72 1014.4
20260506022214 69 128 0.0 1.0 0.00 0.00 0.00 71 1014.5
20260506021004 69 131 0.0 2.0 0.00 0.00 0.00 70 1014.5
20260506020005 70 94 0.0 1.0 0.00 0.00 0.00 70 1014.5
20260506015217 70 98 0.0 1.0 0.00 0.00 0.00 70 1014.4
20260506014004 71 99 0.0 1.0 0.00 0.00 0.00 69 1014.1
20260506013005 71 112 0.0 1.0 0.00 0.00 0.00 69 1014.2
20260506012215 71 100 0.0 1.0 0.00 0.00 0.00 68 1014.1
20260506011216 71 95 0.0 1.0 0.00 0.00 0.00 67 1014.2
20260506010005 72 90 0.0 1.0 0.00 0.00 0.00 66 1014.0
20260506005218 72 103 0.0 2.0 0.00 0.00 0.00 65 1013.9
20260506004005 73 95 1.0 3.0 0.00 0.00 0.00 64 1014.1
20260506003005 73 96 1.0 4.0 0.00 0.00 0.00 64 1013.8
20260506002005 74 96 1.0 3.0 0.00 0.00 0.00 62 1013.4
20260506001004 74 89 1.0 6.0 0.00 0.00 0.00 61 1013.2
20260506000219 74 83 1.0 6.0 0.00 0.00 0.00 60 1013.2
20260505235005 75 93 1.0 2.0 0.00 0.00 0.00 58 1013.2
20260505234004 75 93 1.0 6.0 0.00 0.00 0.00 57 1013.2
20260505233005 76 85 1.0 4.0 0.00 0.00 0.00 55 1013.3
20260505232004 76 84 2.0 6.0 0.00 0.00 0.00 53 1013.3
20260505231004 78 83 1.0 2.0 0.00 0.00 0.00 52 1013.0
20260505230005 78 91 2.0 9.0 0.00 0.00 0.00 52 1013.4
20260505225004 78 92 2.0 7.0 0.00 0.00 0.00 51 1013.1
20260505224004 79 85 2.0 7.0 0.00 0.00 0.00 53 1013.2
20260505223216 79 80 3.0 10.0 0.00 0.00 0.00 54 1013.1
20260505222004 80 89 2.0 8.0 0.00 0.00 0.00 52 1013.2
20260505221004 80 103 2.0 6.0 0.00 0.00 0.00 51 1013.1
20260505220005 81 94 2.0 6.0 0.00 0.00 0.00 51 1013.0
20260505215215 80 84 3.0 11.0 0.00 0.00 0.00 52 1013.1
20260505214005 82 100 2.0 9.0 0.00 0.00 0.00 50 1013.1
20260505213004 81 83 2.0 6.0 0.00 0.00 0.00 50 1013.3
20260505212004 82 93 2.0 8.0 0.00 0.00 0.00 49 1013.0
20260505211005 82 84 3.0 10.0 0.00 0.00 0.00 49 1013.2
20260505210214 82 92 2.0 10.0 0.00 0.00 0.00 49 1013.2
20260505205005 82 94 2.0 10.0 0.00 0.00 0.00 48 1013.3
20260505204004 82 86 3.0 8.0 0.00 0.00 0.00 49 1013.3
20260505203005 83 88 3.0 9.0 0.00 0.00 0.00 48 1013.2
20260505202005 83 80 2.0 6.0 0.00 0.00 0.00 48 1013.3
20260505201005 83 88 2.0 11.0 0.00 0.00 0.00 49 1013.4
20260505200005 83 101 2.0 8.0 0.00 0.00 0.00 49 1013.6
20260505195005 83 92 2.0 5.0 0.00 0.00 0.00 49 1013.6
20260505194004 82 81 2.0 10.0 0.00 0.00 0.00 49 1013.6
20260505193004 83 87 2.0 6.0 0.00 0.00 0.00 49 1013.7
20260505192005 82 78 3.0 7.0 0.00 0.00 0.00 50 1013.9
20260505191004 83 84 2.0 9.0 0.00 0.00 0.00 50 1014.1
20260505190005 82 80 1.0 3.0 0.00 0.00 0.00 50 1013.9
20260505185005 82 79 2.0 7.0 0.00 0.00 0.00 50 1014.1
20260505184004 84 103 2.0 6.0 0.00 0.00 0.00 48 1014.4
20260505183004 84 112 2.0 6.0 0.00 0.00 0.00 48 1014.2
20260505182005 85 88 2.0 7.0 0.00 0.00 0.00 46 1014.2
20260505181004 84 137 1.0 3.0 0.00 0.00 0.00 47 1014.4
20260505180216 83 89 2.0 7.0 0.00 0.00 0.00 49 1014.2
20260505175004 83 86 3.0 9.0 0.00 0.00 0.00 48 1014.5
20260505174004 83 86 2.0 7.0 0.00 0.00 0.00 50 1014.6
20260505173005 81 80 1.0 2.0 0.00 0.00 0.00 51 1014.9
20260505172004 80 80 2.0 4.0 0.00 0.00 0.00 53 1015.0
20260505171004 81 85 2.0 8.0 0.00 0.00 0.00 52 1014.7
20260505170005 82 70 2.0 4.0 0.00 0.00 0.00 51 1015.1
20260505165004 82 69 1.0 2.0 0.00 0.00 0.00 49 1015.0
20260505164004 80 83 2.0 8.0 0.00 0.00 0.00 53 1015.3
20260505163215 79 94 2.0 6.0 0.00 0.00 0.00 54 1015.2
20260505162216 82 80 1.0 4.0 0.00 0.00 0.00 50 1015.3
20260505161004 80 88 2.0 8.0 0.00 0.00 0.00 53 1015.1
20260505153215 80 102 1.0 4.0 0.00 0.00 0.00 55 1015.1
20260505152216 80 202 1.0 3.0 0.00 0.00 0.00 56 1015.3
20260505151005 79 76 2.0 8.0 0.00 0.00 0.00 57 1015.3
20260505140219 76 81 2.0 7.0 0.00 0.00 0.00 65 1015.2
20260505125005 72 73 1.0 3.0 0.00 0.00 0.00 72 1014.6
20260505124004 72 86 1.0 6.0 0.00 0.00 0.00 72 1014.8
20260505123005 72 76 1.0 2.0 0.00 0.00 0.00 76 1014.8
20260505122218 70 79 1.0 2.0 0.00 0.00 0.00 80 1014.7
20260505121214 68 100 0.0 1.0 0.00 0.00 0.00 84 1014.8
20260505120005 66 0 0.0 0.0 0.00 0.00 0.00 87 1014.4
20260505115005 65 0 0.0 0.0 0.00 0.00 0.00 88 1014.4
20260505114004 63 0 0.0 0.0 0.00 0.00 0.00 94 1014.4
20260505113005 62 0 0.0 0.0 0.00 0.00 0.00 96 1014.2
20260505112004 59 0 0.0 0.0 0.00 0.00 0.00 97 1014.3
20260505111004 58 0 0.0 0.0 0.00 0.00 0.00 97 1014.3